| time (UTC) | temp C | wind direction | speed KPH | gust KPH | rain 1hr cm | rain 24hr cm | rain mn cm | humidity % | barometer mb |
| 20260506104003 | 8 | 273 | 4.8 | 12.9 | 0.00 | 0.05 | 0.00 | 78 | 1019.6 |
| 20260506103502 | 8 | 255 | 3.2 | 6.4 | 0.00 | 0.05 | 0.00 | 78 | 1019.5 |
| 20260506103003 | 8 | 271 | 4.8 | 4.8 | 0.00 | 0.05 | 0.00 | 79 | 1019.5 |
| 20260506102503 | 8 | 283 | 3.2 | 9.7 | 0.00 | 0.05 | 0.00 | 79 | 1019.5 |
| 20260506102002 | 8 | 277 | 4.8 | 9.7 | 0.00 | 0.05 | 0.00 | 79 | 1019.5 |
| 20260506101503 | 8 | 263 | 4.8 | 6.4 | 0.00 | 0.05 | 0.00 | 79 | 1019.5 |
| 20260506101004 | 8 | 253 | 3.2 | 12.9 | 0.00 | 0.05 | 0.00 | 80 | 1019.4 |
| 20260506100502 | 8 | 271 | 3.2 | 3.2 | 0.00 | 0.05 | 0.00 | 80 | 1019.5 |
| 20260506095502 | 8 | 268 | 4.8 | 6.4 | 0.00 | 0.05 | 0.00 | 81 | 1019.4 |
| 20260506095003 | 8 | 268 | 4.8 | 11.3 | 0.00 | 0.05 | 0.00 | 82 | 1019.2 |
| 20260506094503 | 7 | 270 | 3.2 | 19.3 | 0.00 | 0.05 | 0.00 | 83 | 1019.2 |
| 20260506094002 | 7 | 274 | 0.0 | 3.2 | 0.00 | 0.05 | 0.00 | 84 | 1019.3 |
| 20260506093502 | 7 | 274 | 0.0 | 4.8 | 0.00 | 0.05 | 0.00 | 85 | 1019.3 |
| 20260506093004 | 7 | 0 | 1.6 | 0.0 | 0.00 | 0.05 | 0.00 | 85 | 1019.3 |
| 20260506092503 | 7 | 0 | 1.6 | 0.0 | 0.00 | 0.05 | 0.00 | 85 | 1019.3 |
| 20260506092002 | 7 | 274 | 1.6 | 6.4 | 0.00 | 0.05 | 0.00 | 85 | 1019.3 |
| 20260506091003 | 7 | 274 | 1.6 | 9.7 | 0.00 | 0.05 | 0.00 | 85 | 1019.5 |
| 20260506090503 | 7 | 273 | 0.0 | 4.8 | 0.00 | 0.05 | 0.00 | 85 | 1019.4 |
| 20260506085503 | 7 | 272 | 0.0 | 9.7 | 0.00 | 0.05 | 0.00 | 84 | 1019.3 |
| 20260506085003 | 7 | 0 | 1.6 | 0.0 | 0.00 | 0.05 | 0.00 | 84 | 1019.4 |
| 20260506084503 | 7 | 270 | 1.6 | 9.7 | 0.00 | 0.05 | 0.00 | 84 | 1019.4 |
| 20260506084003 | 7 | 270 | 1.6 | 9.7 | 0.00 | 0.05 | 0.00 | 84 | 1019.4 |
| 20260506083503 | 7 | 0 | 1.6 | 0.0 | 0.00 | 0.05 | 0.00 | 83 | 1019.3 |
| 20260506083003 | 7 | 272 | 1.6 | 9.7 | 0.00 | 0.05 | 0.00 | 83 | 1019.2 |
| 20260506082503 | 7 | 273 | 1.6 | 11.3 | 0.00 | 0.05 | 0.00 | 83 | 1019.2 |
| 20260506082004 | 7 | 273 | 1.6 | 9.7 | 0.00 | 0.05 | 0.00 | 83 | 1019.2 |
| 20260506081503 | 7 | 272 | 1.6 | 11.3 | 0.00 | 0.05 | 0.00 | 83 | 1019.1 |
| 20260506081002 | 7 | 257 | 1.6 | 6.4 | 0.00 | 0.05 | 0.00 | 83 | 1019.3 |
| 20260506080503 | 7 | 256 | 1.6 | 6.4 | 0.00 | 0.05 | 0.00 | 83 | 1019.2 |
| 20260506073503 | 7 | 239 | 6.4 | 12.9 | 0.00 | 0.05 | 0.00 | 84 | 1019.1 |
| 20260506073003 | 7 | 237 | 6.4 | 11.3 | 0.00 | 0.05 | 0.00 | 84 | 1019.1 |
| 20260506072503 | 7 | 236 | 4.8 | 9.7 | 0.00 | 0.05 | 0.00 | 84 | 1019.1 |
| 20260506072003 | 7 | 241 | 6.4 | 6.4 | 0.00 | 0.05 | 0.00 | 84 | 1019.0 |
| 20260506071504 | 7 | 247 | 6.4 | 9.7 | 0.00 | 0.05 | 0.00 | 84 | 1019.0 |
| 20260506071003 | 7 | 226 | 6.4 | 9.7 | 0.00 | 0.05 | 0.00 | 84 | 1018.9 |
| 20260506070503 | 7 | 234 | 4.8 | 8.0 | 0.00 | 0.05 | 0.00 | 84 | 1018.9 |
| 20260506062503 | 7 | 246 | 6.4 | 6.4 | 0.00 | 0.05 | 0.05 | 84 | 1018.6 |
| 20260506062003 | 7 | 243 | 6.4 | 12.9 | 0.00 | 0.05 | 0.05 | 84 | 1018.5 |
| 20260506061003 | 7 | 226 | 6.4 | 11.3 | 0.00 | 0.05 | 0.05 | 84 | 1018.4 |
| 20260506051003 | 7 | 217 | 8.0 | 14.5 | 0.00 | 0.05 | 0.05 | 82 | 1018.0 |
| 20260506050503 | 7 | 235 | 8.0 | 17.7 | 0.00 | 0.05 | 0.05 | 82 | 1018.0 |
| 20260506045003 | 7 | 226 | 8.0 | 17.7 | 0.00 | 0.05 | 0.05 | 82 | 1017.9 |
| 20260506044503 | 7 | 245 | 8.0 | 14.5 | 0.00 | 0.05 | 0.05 | 82 | 1017.9 |
| 20260506044003 | 7 | 227 | 8.0 | 16.1 | 0.00 | 0.05 | 0.05 | 83 | 1017.8 |
| 20260506043503 | 7 | 238 | 8.0 | 14.5 | 0.00 | 0.05 | 0.05 | 83 | 1017.8 |
| 20260506043003 | 7 | 232 | 8.0 | 12.9 | 0.00 | 0.05 | 0.05 | 83 | 1017.8 |
| 20260506042503 | 7 | 220 | 6.4 | 16.1 | 0.00 | 0.05 | 0.05 | 83 | 1017.7 |
| 20260506042003 | 7 | 222 | 4.8 | 11.3 | 0.00 | 0.05 | 0.05 | 83 | 1017.6 |
| 20260506041503 | 7 | 246 | 6.4 | 11.3 | 0.00 | 0.05 | 0.05 | 83 | 1017.5 |
| 20260506041003 | 7 | 242 | 6.4 | 14.5 | 0.00 | 0.05 | 0.05 | 83 | 1017.5 |
| 20260506040503 | 7 | 225 | 6.4 | 11.3 | 0.00 | 0.05 | 0.05 | 83 | 1017.4 |
| 20260506040003 | 7 | 236 | 6.4 | 12.9 | 0.00 | 0.05 | 0.05 | 82 | 1017.4 |
| 20260506035503 | 7 | 254 | 6.4 | 11.3 | 0.00 | 0.05 | 0.05 | 81 | 1017.4 |
| 20260506034503 | 8 | 221 | 8.0 | 14.5 | 0.00 | 0.05 | 0.05 | 82 | 1017.3 |
| 20260506034003 | 8 | 238 | 8.0 | 14.5 | 0.00 | 0.05 | 0.05 | 81 | 1017.2 |
| 20260506033503 | 8 | 223 | 8.0 | 11.3 | 0.00 | 0.05 | 0.05 | 81 | 1017.2 |
| 20260506033004 | 8 | 248 | 6.4 | 14.5 | 0.00 | 0.05 | 0.05 | 81 | 1017.1 |
| 20260506032503 | 8 | 227 | 4.8 | 12.9 | 0.00 | 0.05 | 0.05 | 80 | 1017.1 |
| 20260506032003 | 8 | 247 | 4.8 | 11.3 | 0.00 | 0.05 | 0.05 | 78 | 1017.1 |
| 20260506031503 | 8 | 236 | 6.4 | 8.0 | 0.00 | 0.05 | 0.05 | 76 | 1016.9 |
| 20260506031003 | 8 | 254 | 9.7 | 8.0 | 0.00 | 0.05 | 0.05 | 75 | 1016.8 |
| 20260506030503 | 8 | 263 | 9.7 | 14.5 | 0.00 | 0.05 | 0.05 | 75 | 1016.7 |
| 20260506025503 | 8 | 270 | 12.9 | 16.1 | 0.00 | 0.05 | 0.05 | 74 | 1016.6 |
| 20260506023504 | 8 | 256 | 11.3 | 17.7 | 0.00 | 0.05 | 0.05 | 76 | 1016.4 |
| 20260506023003 | 8 | 262 | 12.9 | 17.7 | 0.00 | 0.05 | 0.05 | 76 | 1016.3 |
| 20260506022503 | 8 | 273 | 12.9 | 20.9 | 0.00 | 0.05 | 0.05 | 76 | 1016.3 |
| 20260506022003 | 8 | 259 | 11.3 | 27.4 | 0.00 | 0.05 | 0.05 | 77 | 1016.2 |
| 20260506021503 | 8 | 259 | 9.7 | 17.7 | 0.00 | 0.05 | 0.05 | 77 | 1016.3 |
| 20260506020503 | 8 | 274 | 9.7 | 19.3 | 0.00 | 0.05 | 0.05 | 77 | 1016.1 |
| 20260506015503 | 8 | 276 | 11.3 | 14.5 | 0.00 | 0.05 | 0.05 | 78 | 1015.9 |
| 20260506015005 | 8 | 303 | 11.3 | 14.5 | 0.00 | 0.05 | 0.05 | 78 | 1016.0 |
| 20260506014503 | 9 | 310 | 8.0 | 27.4 | 0.00 | 0.05 | 0.05 | 78 | 1015.9 |
| 20260506014004 | 9 | 302 | 8.0 | 17.7 | 0.00 | 0.05 | 0.05 | 78 | 1015.9 |
| 20260506013503 | 9 | 312 | 9.7 | 12.9 | 0.00 | 0.05 | 0.05 | 78 | 1015.8 |
| 20260506013003 | 9 | 283 | 12.9 | 14.5 | 0.00 | 0.05 | 0.05 | 77 | 1015.8 |
| 20260506012503 | 9 | 273 | 17.7 | 12.9 | 0.00 | 0.05 | 0.05 | 77 | 1015.7 |
| 20260506012003 | 9 | 268 | 17.7 | 27.4 | 0.00 | 0.05 | 0.05 | 77 | 1015.6 |
| 20260506010504 | 9 | 272 | 14.5 | 24.1 | 0.00 | 0.05 | 0.05 | 77 | 1015.5 |
| 20260506010003 | 9 | 277 | 14.5 | 25.7 | 0.00 | 0.05 | 0.05 | 78 | 1015.6 |
| 20260506005503 | 9 | 259 | 12.9 | 19.3 | 0.00 | 0.05 | 0.05 | 78 | 1015.7 |
| 20260506005003 | 9 | 275 | 9.7 | 17.7 | 0.00 | 0.05 | 0.05 | 79 | 1015.7 |
| 20260506004504 | 9 | 268 | 8.0 | 17.7 | 0.00 | 0.05 | 0.05 | 81 | 1015.7 |
| 20260506004003 | 8 | 274 | 6.4 | 12.9 | 0.00 | 0.05 | 0.05 | 82 | 1015.7 |
| 20260506003003 | 8 | 292 | 9.7 | 14.5 | 0.00 | 0.05 | 0.05 | 82 | 1015.6 |
| 20260506002003 | 8 | 287 | 11.3 | 20.9 | 0.00 | 0.05 | 0.05 | 83 | 1015.5 |
| 20260506001503 | 8 | 288 | 9.7 | 14.5 | 0.00 | 0.05 | 0.05 | 84 | 1015.4 |
| 20260506001003 | 8 | 287 | 9.7 | 16.1 | 0.00 | 0.05 | 0.05 | 84 | 1015.3 |
| 20260506000504 | 8 | 294 | 9.7 | 11.3 | 0.00 | 0.05 | 0.05 | 84 | 1015.3 |
| 20260506000003 | 8 | 301 | 9.7 | 16.1 | 0.00 | 0.05 | 0.05 | 83 | 1015.4 |
| 20260505235004 | 8 | 293 | 8.0 | 12.9 | 0.00 | 0.05 | 0.05 | 82 | 1015.4 |
| 20260505234504 | 8 | 273 | 8.0 | 12.9 | 0.00 | 0.05 | 0.05 | 82 | 1015.4 |
| 20260505234003 | 8 | 307 | 6.4 | 16.1 | 0.00 | 0.05 | 0.05 | 82 | 1015.4 |
| 20260505233503 | 8 | 294 | 8.0 | 11.3 | 0.00 | 0.05 | 0.05 | 83 | 1015.5 |
| 20260505233004 | 8 | 276 | 12.9 | 11.3 | 0.00 | 0.05 | 0.05 | 83 | 1015.5 |
| 20260505232503 | 8 | 285 | 12.9 | 19.3 | 0.00 | 0.05 | 0.05 | 83 | 1015.5 |
| 20260505232003 | 8 | 296 | 12.9 | 20.9 | 0.00 | 0.05 | 0.05 | 83 | 1015.5 |
| 20260505231503 | 8 | 286 | 9.7 | 24.1 | 0.00 | 0.05 | 0.05 | 81 | 1015.6 |
| 20260505230503 | 9 | 289 | 6.4 | 14.5 | 0.00 | 0.05 | 0.05 | 80 | 1015.5 |
| 20260505230004 | 8 | 282 | 6.4 | 14.5 | 0.00 | 0.05 | 0.05 | 81 | 1015.5 |
| 20260505225503 | 8 | 304 | 8.0 | 12.9 | 0.00 | 0.05 | 0.05 | 81 | 1015.5 |
| 20260505225004 | 8 | 304 | 9.7 | 9.7 | 0.00 | 0.05 | 0.05 | 81 | 1015.6 |
| 20260505224503 | 8 | 284 | 8.0 | 14.5 | 0.00 | 0.05 | 0.05 | 87 | 1015.5 |
| 20260505223503 | 8 | 304 | 11.3 | 6.4 | 0.00 | 0.05 | 0.05 | 86 | 1015.8 |
| 20260505222504 | 8 | 307 | 4.8 | 20.9 | 0.00 | 0.05 | 0.05 | 87 | 1015.8 |
| 20260505222003 | 8 | 293 | 4.8 | 9.7 | 0.00 | 0.05 | 0.05 | 87 | 1015.7 |
| 20260505221504 | 8 | 310 | 6.4 | 6.4 | 0.00 | 0.05 | 0.05 | 87 | 1015.8 |
| 20260505221004 | 8 | 306 | 6.4 | 11.3 | 0.00 | 0.05 | 0.05 | 87 | 1015.8 |
| 20260505220503 | 8 | 307 | 8.0 | 17.7 | 0.00 | 0.05 | 0.05 | 86 | 1015.7 |
| 20260505220004 | 8 | 299 | 8.0 | 17.7 | 0.00 | 0.05 | 0.05 | 87 | 1015.8 |
| 20260505215503 | 8 | 297 | 4.8 | 16.1 | 0.00 | 0.05 | 0.05 | 87 | 1015.8 |
| 20260505215003 | 8 | 290 | 4.8 | 12.9 | 0.00 | 0.05 | 0.05 | 87 | 1015.8 |
| 20260505214503 | 8 | 293 | 4.8 | 6.4 | 0.00 | 0.05 | 0.05 | 88 | 1015.8 |
| 20260505214004 | 8 | 294 | 4.8 | 11.3 | 0.00 | 0.05 | 0.05 | 88 | 1015.9 |
| 20260505213503 | 8 | 315 | 4.8 | 8.0 | 0.00 | 0.05 | 0.05 | 88 | 1015.9 |
| 20260505213004 | 7 | 281 | 4.8 | 12.9 | 0.00 | 0.05 | 0.05 | 89 | 1016.0 |
| 20260505212502 | 7 | 302 | 6.4 | 4.8 | 0.00 | 0.05 | 0.05 | 89 | 1015.9 |
| 20260505212002 | 7 | 289 | 6.4 | 9.7 | 0.00 | 0.05 | 0.05 | 89 | 1016.0 |
| 20260505211502 | 7 | 321 | 8.0 | 12.9 | 0.00 | 0.05 | 0.05 | 89 | 1016.0 |
| 20260505210502 | 7 | 314 | 9.7 | 12.9 | 0.00 | 0.05 | 0.05 | 89 | 1016.0 |
| 20260505210003 | 7 | 288 | 8.0 | 16.1 | 0.00 | 0.05 | 0.05 | 88 | 1016.0 |
| 20260505205502 | 7 | 287 | 8.0 | 17.7 | 0.00 | 0.05 | 0.05 | 89 | 1015.9 |
| 20260505204502 | 7 | 295 | 9.7 | 14.5 | 0.00 | 0.05 | 0.05 | 89 | 1015.9 |
| 20260505204002 | 8 | 312 | 8.0 | 17.7 | 0.00 | 0.05 | 0.05 | 89 | 1015.9 |
| 20260505203503 | 8 | 312 | 8.0 | 16.1 | 0.00 | 0.05 | 0.05 | 88 | 1015.9 |
| 20260505202502 | 7 | 310 | 3.2 | 11.3 | 0.00 | 0.05 | 0.05 | 88 | 1015.8 |
| 20260505201002 | 7 | 257 | 9.7 | 12.9 | 0.00 | 0.05 | 0.05 | 87 | 1015.9 |
| 20260505200502 | 8 | 254 | 9.7 | 19.3 | 0.00 | 0.05 | 0.05 | 87 | 1015.8 |
| 20260505195503 | 8 | 251 | 11.3 | 20.9 | 0.00 | 0.05 | 0.05 | 88 | 1015.8 |
| 20260505195002 | 8 | 281 | 9.7 | 20.9 | 0.00 | 0.05 | 0.05 | 88 | 1015.8 |
| 20260505194502 | 7 | 278 | 9.7 | 9.7 | 0.00 | 0.05 | 0.05 | 90 | 1015.9 |
| 20260505194002 | 7 | 309 | 9.7 | 22.5 | 0.00 | 0.05 | 0.05 | 90 | 1015.9 |
| 20260505193503 | 7 | 317 | 4.8 | 24.1 | 0.00 | 0.05 | 0.05 | 91 | 1015.9 |
| 20260505193002 | 7 | 318 | 3.2 | 16.1 | 0.00 | 0.05 | 0.05 | 91 | 1016.0 |
| 20260505192502 | 7 | 295 | 3.2 | 12.9 | 0.00 | 0.05 | 0.05 | 91 | 1015.9 |
| 20260505192002 | 7 | 250 | 6.4 | 4.8 | 0.00 | 0.05 | 0.05 | 91 | 1015.8 |
| 20260505190502 | 7 | 251 | 14.5 | 20.9 | 0.00 | 0.05 | 0.05 | 91 | 1015.7 |
| 20260505190003 | 7 | 252 | 11.3 | 25.7 | 0.00 | 0.05 | 0.05 | 92 | 1015.6 |
| 20260505185502 | 7 | 261 | 12.9 | 20.9 | 0.00 | 0.05 | 0.05 | 92 | 1015.6 |
| 20260505185003 | 7 | 235 | 14.5 | 16.1 | 0.00 | 0.05 | 0.05 | 93 | 1015.7 |
| 20260505184503 | 7 | 252 | 11.3 | 24.1 | 0.00 | 0.05 | 0.05 | 94 | 1015.6 |
| 20260505184002 | 7 | 262 | 8.0 | 19.3 | 0.00 | 0.05 | 0.05 | 93 | 1015.5 |
| 20260505183503 | 7 | 292 | 8.0 | 12.9 | 0.00 | 0.05 | 0.05 | 94 | 1015.6 |
| 20260505183003 | 7 | 301 | 8.0 | 17.7 | 0.00 | 0.05 | 0.05 | 94 | 1015.6 |
| 20260505182502 | 7 | 294 | 9.7 | 14.5 | 0.00 | 0.05 | 0.05 | 93 | 1015.5 |
| 20260505182003 | 7 | 298 | 9.7 | 20.9 | 0.00 | 0.05 | 0.05 | 93 | 1015.5 |
| 20260505181502 | 7 | 277 | 8.0 | 20.9 | 0.00 | 0.05 | 0.05 | 94 | 1015.5 |
| 20260505181002 | 7 | 293 | 6.4 | 12.9 | 0.00 | 0.05 | 0.05 | 94 | 1015.4 |
| 20260505180503 | 7 | 308 | 6.4 | 8.0 | 0.00 | 0.05 | 0.05 | 94 | 1015.4 |
| 20260505175003 | 6 | 294 | 6.4 | 8.0 | 0.00 | 0.05 | 0.05 | 94 | 1015.2 |
| 20260505174002 | 6 | 317 | 6.4 | 12.9 | 0.00 | 0.05 | 0.05 | 94 | 1015.2 |
| 20260505173502 | 7 | 280 | 4.8 | 14.5 | 0.03 | 0.05 | 0.05 | 94 | 1015.1 |
| 20260505173003 | 6 | 291 | 3.2 | 14.5 | 0.03 | 0.05 | 0.05 | 94 | 1015.1 |
| 20260505172502 | 7 | 296 | 4.8 | 4.8 | 0.03 | 0.05 | 0.05 | 94 | 1015.1 |
| 20260505172003 | 6 | 281 | 3.2 | 6.4 | 0.03 | 0.05 | 0.05 | 94 | 1015.0 |
| 20260505171502 | 6 | 307 | 6.4 | 12.9 | 0.03 | 0.05 | 0.05 | 94 | 1015.0 |
| 20260505171002 | 6 | 270 | 6.4 | 9.7 | 0.03 | 0.05 | 0.05 | 94 | 1015.0 |
| 20260505170503 | 6 | 256 | 4.8 | 20.9 | 0.03 | 0.05 | 0.05 | 94 | 1014.9 |
| 20260505170002 | 6 | 309 | 4.8 | 9.7 | 0.03 | 0.05 | 0.05 | 94 | 1014.9 |
| 20260505165502 | 6 | 291 | 3.2 | 11.3 | 0.03 | 0.05 | 0.05 | 94 | 1014.8 |
| 20260505165002 | 6 | 294 | 1.6 | 6.4 | 0.03 | 0.05 | 0.05 | 94 | 1014.8 |
| 20260505164502 | 6 | 299 | 1.6 | 3.2 | 0.03 | 0.05 | 0.05 | 94 | 1014.8 |
| 20260505163503 | 6 | 322 | 0.0 | 1.6 | 0.00 | 0.03 | 0.03 | 94 | 1014.7 |
| 20260505163002 | 6 | 0 | 0.0 | 0.0 | 0.00 | 0.03 | 0.03 | 94 | 1014.6 |
| 20260505162002 | 6 | 295 | 1.6 | 1.6 | 0.00 | 0.03 | 0.03 | 94 | 1014.5 |
| 20260505161503 | 6 | 314 | 0.0 | 3.2 | 0.00 | 0.03 | 0.03 | 94 | 1014.4 |
| 20260505161002 | 6 | 0 | 1.6 | 0.0 | 0.00 | 0.03 | 0.03 | 94 | 1014.2 |
| 20260505160503 | 6 | 263 | 1.6 | 3.2 | 0.00 | 0.03 | 0.03 | 94 | 1014.1 |
| 20260505152502 | 6 | 309 | 3.2 | 6.4 | 0.00 | 0.03 | 0.03 | 94 | 1014.0 |
| 20260505152002 | 6 | 313 | 3.2 | 8.0 | 0.00 | 0.03 | 0.03 | 94 | 1014.0 |
| 20260505151502 | 6 | 308 | 1.6 | 8.0 | 0.00 | 0.03 | 0.03 | 93 | 1014.0 |
| 20260505151003 | 6 | 304 | 1.6 | 3.2 | 0.00 | 0.03 | 0.03 | 93 | 1014.0 |
| 20260505150502 | 6 | 295 | 4.8 | 8.0 | 0.00 | 0.03 | 0.03 | 93 | 1014.0 |
| 20260505125003 | 6 | 312 | 1.6 | 6.4 | 0.00 | 0.00 | 0.00 | 90 | 1013.4 |
| 20260505124504 | 6 | 257 | 0.0 | 8.0 | 0.00 | 0.00 | 0.00 | 90 | 1013.3 |
| 20260505123503 | 6 | 329 | 3.2 | 1.6 | 0.00 | 0.00 | 0.00 | 90 | 1013.3 |
| 20260505123003 | 6 | 322 | 3.2 | 6.4 | 0.00 | 0.00 | 0.00 | 90 | 1013.4 |
| 20260505122502 | 6 | 307 | 4.8 | 9.7 | 0.00 | 0.00 | 0.00 | 89 | 1013.3 |
| 20260505121503 | 6 | 315 | 6.4 | 8.0 | 0.00 | 0.00 | 0.00 | 89 | 1013.1 |
| 20260505121003 | 6 | 286 | 8.0 | 11.3 | 0.00 | 0.00 | 0.00 | 89 | 1013.2 |
| 20260505120503 | 6 | 316 | 8.0 | 14.5 | 0.00 | 0.00 | 0.00 | 89 | 1013.2 |
| 20260505120003 | 6 | 316 | 8.0 | 14.5 | 0.00 | 0.00 | 0.00 | 88 | 1013.1 |
| 20260505115502 | 6 | 318 | 9.7 | 14.5 | 0.00 | 0.00 | 0.00 | 88 | 1013.1 |
| 20260505115003 | 6 | 317 | 8.0 | 16.1 | 0.00 | 0.00 | 0.00 | 88 | 1013.2 |
| 20260505114004 | 6 | 285 | 8.0 | 17.7 | 0.00 | 0.00 | 0.00 | 87 | 1013.1 |
| 20260505113503 | 6 | 300 | 8.0 | 12.9 | 0.00 | 0.00 | 0.00 | 87 | 1013.2 |
| 20260505113003 | 6 | 302 | 9.7 | 12.9 | 0.00 | 0.00 | 0.00 | 87 | 1013.2 |
| 20260505112503 | 6 | 313 | 11.3 | 12.9 | 0.00 | 0.00 | 0.00 | 87 | 1013.2 |
| 20260505112002 | 6 | 278 | 12.9 | 16.1 | 0.00 | 0.00 | 0.00 | 87 | 1013.1 |
| 20260505111502 | 6 | 275 | 12.9 | 19.3 | 0.00 | 0.00 | 0.00 | 87 | 1013.1 |